Location: *
(28.2408°N, 53.4600°E)
Time: 10:48:27
(UTC+00:00)

CZ-2D R/B - Pass Details

Date: 22 September 2019
Orbit: 523 x 538 km, 97.4° (Epoch: 21 October)

Event Time Altitude Azimuth Distance (km) Brightness Sun altitude
Rises 14:52:13 0° 145° (SE) 2,639 6.4 -7.2°
Reaches altitude 10° 14:54:31 10° 133° (SE) 1,754 5.4 -7.7°
Maximum altitude 14:57:45 27° 74° (ENE) 1,020 4.2 -8.4°
Drops below altitude 10° 15:01:00 10° 15° (NNE) 1,762 5.8 -9.1°
Sets 15:03:18 0° 4° (N) 2,654 6.8 -9.6°
